Location: Gleizolles
(44.4833°N, 6.7667°E)
Time: 03:51:58
(UTC+00:00)

Cosmos 676 Rocket - Pass Details

Date: 09 April 2020
Orbit: 755 x 784 km, 74.0° (Epoch: 02 June)

Event Time Altitude Azimuth Distance (km) Brightness Sun altitude
Rises 19:05:27 0° 180° (S) 3,243 7.0 -10.2°
Reaches altitude 10° 19:07:56 10° 173° (S) 2,316 6.2 -10.6°
Maximum altitude 19:12:52 43° 103° (ESE) 1,078 4.3 -11.4°
Drops below altitude 10° 19:17:48 10° 34° (NNE) 2,313 6.4 -12.2°
Sets 19:20:16 0° 27° (NNE) 3,239 7.2 -12.6°
